TimeEDT,TemperatureF,Dew PointF,Humidity,Sea Level PressureIn,VisibilityMPH,Wind Direction,Wind SpeedMPH,Gust SpeedMPH,PrecipitationIn,Events,Conditions,WindDirDegrees,DateUTC
12:53 AM,77.0,69.1,76,29.79,10.0,NW,10.4,-,N/A,,Partly Cloudy,320,2013-05-04 04:53:00
1:53 AM,75.9,69.1,79,29.78,10.0,NW,10.4,-,N/A,,Partly Cloudy,320,2013-05-04 05:53:00
2:38 AM,75.2,69.8,83,29.77,10.0,NW,9.2,-,N/A,,Mostly Cloudy,320,2013-05-04 06:38:00
2:53 AM,75.9,69.1,79,29.76,10.0,NW,10.4,-,N/A,,Scattered Clouds,320,2013-05-04 06:53:00
3:53 AM,75.9,69.1,79,29.75,10.0,NW,10.4,-,N/A,,Partly Cloudy,320,2013-05-04 07:53:00
4:53 AM,75.9,68.0,76,29.75,10.0,NW,11.5,-,N/A,,Clear,320,2013-05-04 08:53:00
5:53 AM,75.9,68.0,76,29.76,10.0,NW,11.5,-,N/A,,Clear,310,2013-05-04 09:53:00
6:53 AM,75.9,68.0,76,29.78,10.0,NW,10.4,-,N/A,,Partly Cloudy,310,2013-05-04 10:53:00
7:53 AM,77.0,68.0,74,29.80,10.0,WNW,12.7,-,N/A,,Clear,300,2013-05-04 11:53:00
8:53 AM,78.1,68.0,71,29.81,10.0,WNW,15.0,-,N/A,,Scattered Clouds,300,2013-05-04 12:53:00
9:53 AM,79.0,69.1,72,29.81,10.0,WNW,13.8,20.7,N/A,,Clear,300,2013-05-04 13:53:00
10:53 AM,79.0,69.1,72,29.83,10.0,NW,12.7,-,N/A,,Partly Cloudy,310,2013-05-04 14:53:00
11:53 AM,79.0,69.1,72,29.83,10.0,NW,13.8,-,N/A,,Mostly Cloudy,310,2013-05-04 15:53:00
12:06 PM,80.6,68.0,65,29.83,10.0,NW,17.3,-,N/A,,Mostly Cloudy,310,2013-05-04 16:06:00
12:53 PM,80.1,69.1,69,29.83,10.0,WNW,16.1,21.9,N/A,,Mostly Cloudy,300,2013-05-04 16:53:00
1:32 PM,80.6,68.0,65,29.82,10.0,WNW,16.1,23.0,N/A,,Scattered Clouds,300,2013-05-04 17:32:00
1:53 PM,80.1,68.0,67,29.82,10.0,WNW,16.1,-,N/A,,Scattered Clouds,290,2013-05-04 17:53:00
2:53 PM,80.1,70.0,71,29.81,10.0,NW,12.7,-,N/A,,Mostly Cloudy,310,2013-05-04 18:53:00
3:00 PM,80.6,69.8,70,29.81,10.0,NW,18.4,23.0,N/A,,Mostly Cloudy,310,2013-05-04 19:00:00
3:07 PM,80.6,69.8,70,29.81,10.0,NW,15.0,-,N/A,,Mostly Cloudy,310,2013-05-04 19:07:00
3:39 PM,80.6,69.8,70,29.79,10.0,NW,16.1,-,N/A,,Mostly Cloudy,320,2013-05-04 19:39:00
3:53 PM,80.1,70.0,71,29.80,10.0,NW,13.8,21.9,N/A,,Mostly Cloudy,310,2013-05-04 19:53:00
4:02 PM,80.6,69.8,70,29.80,10.0,NW,20.7,24.2,N/A,,Mostly Cloudy,320,2013-05-04 20:02:00
4:53 PM,79.0,69.1,72,29.80,10.0,NW,18.4,25.3,N/A,,Mostly Cloudy,310,2013-05-04 20:53:00
5:53 PM,79.0,68.0,69,29.80,10.0,NW,16.1,24.2,N/A,,Mostly Cloudy,310,2013-05-04 21:53:00
6:00 PM,78.8,68.0,69,29.80,10.0,NW,17.3,-,N/A,,Mostly Cloudy,310,2013-05-04 22:00:00
6:32 PM,78.8,66.2,65,29.80,10.0,NW,16.1,23.0,N/A,,Scattered Clouds,310,2013-05-04 22:32:00
6:53 PM,78.1,66.9,68,29.81,10.0,NW,15.0,25.3,N/A,,Mostly Cloudy,310,2013-05-04 22:53:00
7:53 PM,77.0,66.0,69,29.82,10.0,NNW,15.0,23.0,N/A,,Mostly Cloudy,330,2013-05-04 23:53:00
8:53 PM,75.9,64.9,69,29.84,10.0,NW,16.1,-,N/A,,Partly Cloudy,320,2013-05-05 00:53:00
9:53 PM,75.9,64.0,67,29.87,10.0,NW,15.0,-,N/A,,Mostly Cloudy,320,2013-05-05 01:53:00
10:53 PM,75.0,60.1,60,29.88,10.0,WNW,15.0,-,N/A,,Partly Cloudy,300,2013-05-05 02:53:00
11:53 PM,75.0,60.1,60,29.88,10.0,WNW,12.7,-,N/A,,Mostly Cloudy,300,2013-05-05 03:53:00